This is the latest recevied weather packets stored in our database for station/object F5SGY-10. If no packets are shown the sender has not sent any weather packets the latest 10 day(s).
| Time | Temp. | Humidity | Pressure | Rain* | Wind** | Luminosity | Snow |
|---|---|---|---|---|---|---|---|
| 1777832018 | 26.67° C | 41% | 971.3 hPa | - | - | - | - |
| 1777831118 | 26.67° C | 41% | 970.9 hPa | - | - | - | - |
| 1777830217 | 26.67° C | 41% | 970.8 hPa | - | - | - | - |
| 1777829317 | 26.67° C | 41% | 970.8 hPa | - | - | - | - |
| 1777828417 | 26.67° C | 41% | 970.9 hPa | - | - | - | - |
| 1777827517 | 26.67° C | 41% | 971.2 hPa | - | - | - | - |
| 1777826617 | 27.22° C | 41% | 971 hPa | - | - | - | - |
| 1777825717 | 27.22° C | 41% | 970.7 hPa | - | - | - | - |
| 1777824817 | 27.22° C | 41% | 970.7 hPa | - | - | - | - |
| 1777823917 | 26.67° C | 41% | 970.8 hPa | - | - | - | - |
| 1777823017 | 26.67° C | 41% | 970.5 hPa | - | - | - | - |
| 1777822117 | 26.67° C | 41% | 970.6 hPa | - | - | - | - |
| 1777821216 | 26.67° C | 41% | 970.6 hPa | - | - | - | - |
| 1777820316 | 26.67° C | 41% | 970.6 hPa | - | - | - | - |
| 1777819416 | 26.11° C | 42% | 970.7 hPa | - | - | - | - |
| 1777818516 | 26.11° C | 42% | 971.1 hPa | - | - | - | - |
| 1777817616 | 26.11° C | 41% | 971.4 hPa | - | - | - | - |
| 1777816716 | 25.56° C | 41% | 971.5 hPa | - | - | - | - |
| 1777815816 | 26.11° C | 41% | 971.7 hPa | - | - | - | - |
| 1777814916 | 25.56° C | 42% | 971.6 hPa | - | - | - | - |
| 1777814015 | 25.56° C | 42% | 972 hPa | - | - | - | - |
| 1777813115 | 25.56° C | 41% | 972 hPa | - | - | - | - |
| 1777812215 | 25.56° C | 41% | 972.1 hPa | - | - | - | - |
| 1777811315 | 25.56° C | 41% | 972.3 hPa | - | - | - | - |
| 1777810415 | 25.56° C | 41% | 972.3 hPa | - | - | - | - |
* Rain since midnight (hover to see other rain measurements)
** Current wind speed in m/s (hover to see current wind gust speed)